CZ-6A DEB, 55556

Orbit data source: Space-Track

CZ-6A DEB, 55556 is space debris in SSO originally from a launch on Fri, 11 Nov 2022 UTC launched from the Taiyaun Space Center, China (TSC). Debris objects in space refer to the collection of defunct objects orbiting the Earth. Examples of debris include non-operational satellites, rocket bodies, and fragments generated from explosions, collisions, or faulty payload assembly.

Loading next visibility...
Identifier
55556, 2022-151ZE
Orbit
SSO
Country
Flag of CNCN / PRC
Related business
Manufacturer
SAST
Mission
Spacecraft
Bus & Motor
Unknown
Mass
Unknown
Launch date (UTC)
2022-11-11 (4 years ago)
Launch vehicle
Unknown
Launch site
Taiyaun Space Center, China (TSC)
Object type
Payload
Rocket body
Debris
Shape & HBR
Unknown shape, 0.1 m
Radar Cross Section
Medium (>0.1 m² and <1 m²)

Expand to show TLE details & history
Last TLE update: 21 hours ago

TLE from 21 hours ago
0 CZ-6A DEB
1 55556U 22151ZE  26207.13928030  .00022825  00000-0  30967-2 0  9996
2 55556  98.6295 280.4551 0068402 147.1145 213.4347 14.77245347196199
Epoch: 2026-07-26T03:20Z
TLE epoch observation values (Epoch: 2026-07-26T03:20:33.817Z)
Latitude
-0.00008°
Longitude
-73.52729°
Altitude
681.185 km
Speed
7.494 km/s
True Right ascension
18h 41m 49s
True Declination
0° 00' 00"
Sunlit
Object was in full shadow at epoch
Visualization orbit readout
Latitude
Unknown
Longitude
Unknown
Altitude
Unknown
Speed
Unknown
Apparent Right ascension
Unknown
Apparent Declination
Unknown
Sunlit
N/A
Visualization observer readout
Local Sidereal Time
13:57:55
Azimuth
Unknown
Elevation
Unknown
Doppler factor
Unknown
Orbital elements
Apogee altitude
683.083 km
Perigee altitude
587.139 km
Semi-major axis
7,013.248 km
Eccentricity
0.00684
Inclination
98.6295°
RAAN
280.4551°
Arg. of periapsis
147.1145°
True anomaly
213.00589°
Mean anomaly
213.4347°
Eccentric anomaly
213.21999°
Mean motion
3.69542 °/min
Orbital period
97.42 mins
BSTAR
0.0030967
Loading maneuver chart data...
Computing Atmospheric mass density...
Loading historical data...
Loading historical data...
Loading historical data...
Loading historical data...
Loading historical data...
Loading historical data...
Loading historical data...

Documentation

Showing up to 5 results
|